This is the latest recevied weather packets stored in our database for station/object IK2ILW-4. If no packets are shown the sender has not sent any weather packets the latest 10 day(s).
| Time | Temp. | Humidity | Pressure | Rain* | Wind** | Luminosity | Snow |
|---|---|---|---|---|---|---|---|
| 1777812768 | 16.11° C | 46% | 1021.1 hPa | 0 mm | - | 710 W/m² | - |
| 1777812463 | 16.11° C | 45% | 1021.1 hPa | 0 mm | - | 754 W/m² | - |
| 1777812160 | 16.11° C | 47% | 1021.2 hPa | 0 mm | - | 809 W/m² | - |
| 1777811860 | 16.11° C | 45% | 1021.2 hPa | 0 mm | - | 766 W/m² | - |
| 1777811559 | 16.11° C | 44% | 1021.2 hPa | 0 mm | - | 765 W/m² | - |
| 1777811254 | 16.11° C | 43% | 1021.2 hPa | 0 mm | - | 628 W/m² | - |
| 1777810970 | 16.11° C | 43% | 1021.2 hPa | 0 mm | - | 663 W/m² | - |
| 1777810669 | 16.11° C | 44% | 1021.2 hPa | 0 mm | - | 679 W/m² | - |
| 1777810365 | 15.56° C | 46% | 1021.2 hPa | 0 mm | - | 640 W/m² | - |
| 1777810064 | 16.11° C | 43% | 1021.2 hPa | 0 mm | - | 659 W/m² | - |
| 1777809760 | 15.56° C | 45% | 1021.2 hPa | 0 mm | - | 608 W/m² | - |
| 1777809456 | 15.56° C | 44% | 1021.2 hPa | 0 mm | - | 429 W/m² | - |
| 1777809153 | 15.56° C | 43% | 1021.2 hPa | 0 mm | - | 682 W/m² | - |
| 1777808872 | 16.11° C | 43% | 1021.2 hPa | 0 mm | - | 650 W/m² | - |
| 1777808568 | 16.11° C | 44% | 1021.2 hPa | 0 mm | - | 860 W/m² | - |
| 1777808268 | 16.11° C | 44% | 1021.2 hPa | 0 mm | - | 779 W/m² | - |
| 1777807958 | 15.56° C | 44% | 1021.2 hPa | 0 mm | - | 640 W/m² | - |
| 1777807655 | 16.11° C | 43% | 1021.2 hPa | 0 mm | - | 800 W/m² | - |
| 1777807373 | 16.11° C | 43% | 1021.2 hPa | 0 mm | - | 668 W/m² | - |
| 1777807069 | 16.11° C | 43% | 1021.2 hPa | 0 mm | - | 642 W/m² | - |
| 1777806765 | 16.11° C | 43% | 1021.3 hPa | 0 mm | - | 717 W/m² | - |
| 1777806460 | 16.11° C | 41% | 1021.3 hPa | 0 mm | - | 499 W/m² | - |
| 1777806157 | 16.11° C | 43% | 1021.3 hPa | 0 mm | - | 724 W/m² | - |
| 1777805856 | 16.11° C | 42% | 1021.5 hPa | 0 mm | - | 722 W/m² | - |
| 1777805554 | 15.56° C | 43% | 1021.5 hPa | 0 mm | - | 844 W/m² | - |
* Rain since midnight (hover to see other rain measurements)
** Current wind speed in m/s (hover to see current wind gust speed)